Вернуться в каталог

SL-16 DEB

АктивенLEO
NORAD 22816·DEBRIS·🇷🇺 Russia

Запущен Dec 25, 1992 с Baikonur Cosmodrome

Loading…

Ближайшие Пролёты (ближайшие 24 часа)

TLE

СвежийSource: Space-Track

Эпоха: Sep 13, 2026, 10:46 UTC

1 22816U 92093JC  26256.44896324  .00027012  00000-0  27664-2 0  9992
2 22816  71.4373 260.1989 0030410 175.5312 184.6131 14.90055792722842

Отслеживайте SL-16 DEB в реальном времени с AllMySat

Download on the App Store